Weather History for LTBU - January, 2013

Change the Weather History Date:

Wednesday, January 2, 2013

  Actual Average Record
Temperature  
Mean Temperature 42 °F -  
Max Temperature 44 °F - - ()
Min Temperature 41 °F - - ()
Degree Days  
Heating Degree Days 22    
Moisture  
Dew Point 41 °F    
Average Humidity 94    
Maximum Humidity 100    
Minimum Humidity 93    
Precipitation  
Precipitation 0.00 in - - ()
Sea Level Pressure  
Sea Level Pressure 30.24 in    
Wind  
Wind Speed 4 mph ()    
Max Wind Speed 8 mph    
Max Gust Speed -    
Visibility 3.4 miles    
Events      
T = Trace of Precipitation, MM = Missing Value Source: Averaged Metar Reports

Daily Weather History Graph

Daily Weather History Graph

Search for Another Location

Airport or City:

Trip Planner

Search our weather history database for the weather conditions in past years. The results will help you decide how hot, cold, wet, or windy it might be!

Date:

Astronomy

Jan. 02, 2013 Rise Set
Actual Time 7:33 AM EET 4:51 PM EET
Civil Twilight 7:02 AM EET 5:22 PM EET
Nautical Twilight 6:28 AM EET 5:56 PM EET
Astronomical Twilight 5:54 AM EET 6:30 PM EET
Moon 10:06 PM EET (1/2) 10:03 AM EET (1/2)
Length of Visible Light 10h 19m
Length of Day
9h 17m
Waning Gibbous, 78% of the Moon is Illuminated
Jan 2
Waning Gibbous
Jan 5
Last Quarter
Jan 11
New
Jan 19
First Quarter
Jan 27
Full

Hourly Weather History & Observations

Time (EET) Temp. Windchill Dew Point Humidity Pressure Visibility Wind Dir Wind Speed Gust Speed Precip Events Conditions
12:20 AM 41.0 °F 38.0 °F 39.2 °F 93% 30.18 in 6.2 mi North 4.6 mph - N/A   Mostly Cloudy
12:50 AM 41.0 °F 38.0 °F 39.2 °F 93% 30.18 in 6.2 mi NNE 4.6 mph - N/A   Mostly Cloudy
1:20 AM 41.0 °F 39.0 °F 39.2 °F 93% 30.18 in 6.2 mi Variable 3.5 mph - N/A   Mostly Cloudy
1:50 AM 41.0 °F 39.0 °F 39.2 °F 93% 30.18 in 6.2 mi North 3.5 mph - N/A   Mostly Cloudy
2:20 AM 41.0 °F 38.0 °F 39.2 °F 93% 30.18 in 6.2 mi ENE 4.6 mph - N/A   Mostly Cloudy
2:50 AM 41.0 °F 39.0 °F 39.2 °F 93% 30.18 in 6.2 mi Variable 3.5 mph - N/A   Mostly Cloudy
3:20 AM 41.0 °F - 39.2 °F 93% 30.18 in 6.2 mi Variable 1.2 mph - N/A   Mostly Cloudy
3:50 AM 41.0 °F - 39.2 °F 93% 30.18 in 6.2 mi Calm Calm - N/A   Mostly Cloudy
4:20 AM 41.0 °F - 39.2 °F 93% 30.18 in 6.2 mi West 2.3 mph - N/A   Mostly Cloudy
4:50 AM 41.0 °F - 39.2 °F 93% 30.18 in 6.2 mi Variable 1.2 mph - N/A   Mostly Cloudy
5:20 AM 41.0 °F 39.0 °F 39.2 °F 93% 30.18 in 6.2 mi Variable 3.5 mph - N/A   Mostly Cloudy
5:50 AM 41.0 °F - 39.2 °F 93% 30.18 in 6.2 mi Calm Calm - N/A   Mostly Cloudy
6:20 AM 41.0 °F - 39.2 °F 93% 30.18 in 6.2 mi Variable 2.3 mph - N/A   Mostly Cloudy
6:50 AM 41.0 °F 38.0 °F 39.2 °F 93% 30.21 in 6.2 mi North 4.6 mph - N/A   Mostly Cloudy
7:20 AM 41.0 °F - 39.2 °F 93% 30.21 in 4.3 mi NW 2.3 mph - N/A   Mostly Cloudy
7:50 AM 41.0 °F - 39.2 °F 93% 30.21 in 3.1 mi WNW 2.3 mph - N/A   Mostly Cloudy
8:20 AM 41.0 °F 39.0 °F 39.2 °F 93% 30.21 in 2.5 mi NW 3.5 mph - N/A   Mostly Cloudy
8:50 AM 41.0 °F 36.4 °F 39.2 °F 93% 30.21 in 1.9 mi NW 6.9 mph - N/A   Mostly Cloudy
9:20 AM 41.0 °F 38.0 °F 39.2 °F 93% 30.24 in 1.9 mi WNW 4.6 mph - N/A   Mostly Cloudy
9:50 AM 41.0 °F 36.4 °F 41.0 °F 100% 30.24 in 1.6 mi WNW 6.9 mph - N/A   Overcast
10:20 AM 42.8 °F 38.6 °F 41.0 °F 93% 30.24 in 1.6 mi West 6.9 mph - N/A   Overcast
10:50 AM 42.8 °F 39.3 °F 41.0 °F 93% 30.24 in 1.4 mi West 5.8 mph - N/A   Overcast
11:20 AM 42.8 °F 39.3 °F 41.0 °F 93% 30.24 in 1.2 mi WNW 5.8 mph - N/A   Overcast
11:50 AM 42.8 °F 39.3 °F 41.0 °F 93% 30.24 in 1.1 mi NW 5.8 mph - N/A   Overcast
12:20 PM 42.8 °F 39.3 °F 41.0 °F 93% 30.24 in 1.0 mi NNW 5.8 mph - N/A   Overcast
12:50 PM 42.8 °F 38.6 °F 41.0 °F 93% 30.24 in 1.0 mi NW 6.9 mph - N/A   Overcast
1:20 PM 42.8 °F 38.0 °F 41.0 °F 93% 30.24 in 0.9 mi NNW 8.1 mph - N/A   Overcast
1:50 PM 42.8 °F 38.0 °F 41.0 °F 93% 30.24 in 0.9 mi NNW 8.1 mph - N/A   Overcast
2:20 PM 42.8 °F 38.0 °F 41.0 °F 93% 30.24 in 0.9 mi NW 8.1 mph - N/A   Overcast
2:50 PM 42.8 °F 39.3 °F 41.0 °F 93% 30.24 in 0.8 mi NNW 5.8 mph - N/A   Overcast
3:20 PM 42.8 °F 38.6 °F 41.0 °F 93% 30.24 in 0.8 mi NNW 6.9 mph - N/A   Overcast
3:50 PM 42.8 °F 38.6 °F 41.0 °F 93% 30.24 in 0.9 mi NNW 6.9 mph - N/A   Overcast
4:20 PM 42.8 °F 40.1 °F 41.0 °F 93% 30.27 in 1.1 mi North 4.6 mph - N/A   Overcast
4:50 PM 42.8 °F - 42.8 °F 100% 30.27 in 1.0 mi Variable 2.3 mph - N/A   Overcast
5:20 PM 42.8 °F 41.1 °F 42.8 °F 100% 30.27 in 1.2 mi WNW 3.5 mph - N/A   Overcast
5:50 PM 42.8 °F 41.1 °F 41.0 °F 93% 30.27 in 2.2 mi Variable 3.5 mph - N/A   Overcast
6:20 PM 42.8 °F 41.1 °F 41.0 °F 93% 30.30 in 2.5 mi Variable 3.5 mph - N/A   Overcast
6:50 PM 42.8 °F 41.1 °F 41.0 °F 93% 30.30 in 2.5 mi Variable 3.5 mph - N/A   Overcast
7:20 PM 42.8 °F 41.1 °F 42.8 °F 100% 30.30 in 3.1 mi West 3.5 mph - N/A   Overcast
7:50 PM 42.8 °F 41.1 °F 41.0 °F 93% 30.30 in 2.5 mi Variable 3.5 mph - N/A   Mostly Cloudy
8:20 PM 42.8 °F - 41.0 °F 93% 30.30 in 2.5 mi SW 2.3 mph - N/A   Mostly Cloudy
8:50 PM 42.8 °F 41.1 °F 42.8 °F 100% 30.33 in 2.5 mi WNW 3.5 mph - N/A   Mostly Cloudy
9:20 PM 42.8 °F - 42.8 °F 100% 30.33 in 3.7 mi Variable 2.3 mph - N/A   Mostly Cloudy
9:50 PM 44.6 °F 43.1 °F 42.8 °F 93% 30.33 in 4.3 mi Variable 3.5 mph - N/A   Mostly Cloudy
10:20 PM 44.6 °F 43.1 °F 42.8 °F 93% 30.33 in 4.3 mi West 3.5 mph - N/A   Mostly Cloudy
10:50 PM 44.6 °F 43.1 °F 42.8 °F 93% 30.33 in 4.3 mi Variable 3.5 mph - N/A   Mostly Cloudy
11:20 PM 44.6 °F - 42.8 °F 93% 30.33 in 5.0 mi WSW 2.3 mph - N/A   Mostly Cloudy
11:50 PM 44.6 °F - 42.8 °F 93% 30.33 in 5.0 mi WNW 2.3 mph - N/A   Mostly Cloudy